Regional Weather Roundup
Issued by NWS

Home | Current Version | Previous Version | Graphics & Text | Print | Product List | Glossary On
Versions: 1 2 3 4 5 6 7 8 9 10 11 12 13 14 15 16 17 18 19 20 21 22 23 24 25 26 27
000
ASUS45 KCYS 051510
RWRWY

WYOMING REGIONAL WEATHER ROUNDUP
NATIONAL WEATHER SERVICE CHEYENNE WY
800 AM MST MON DEC 05 2016

NOTE:  "FAIR" INDICATES FEW OR NO CLOUDS BELOW 12,000 FEET
WITH NO SIGNIFICANT WEATHER AND/OR OBSTRUCTIONS TO VISIBILITY.

WYZ001-051600-
YELLOWSTONE NATIONAL PARK

CITY           SKY/WX    TMP DP  RH WIND       PRES   REMARKS
LK YELLOWSTONE   N/A      0  -4  83 CALM      29.70R
W YELLOWSTONE  NOT AVBL

$$
WYZ002>013-054>058-071-098>099-051600-
NORTHERN WYOMING

CITY           SKY/WX    TMP DP  RH WIND       PRES   REMARKS
JACKSON        CLOUDY    12  -2  52 NW20G25   29.80S WCI  -6
CODY           FLURRIES  16  13  88 N13       29.75R WCI   2
GREYBULL       CLOUDY    25  14  63 N24G31    29.73R WCI   9
WORLAND        CLOUDY    24  17  74 NW22G31   29.70R WCI   9
SHERIDAN       LGT SNOW  22  18  85 NW17      29.76R FOG     WCI   8
BUFFALO        BLWGSNOW  20  15  81 N28G37    29.66R VSB 1/2 WCI   2
GILLETTE       SNOW      21  19  92 N21       29.63R VSB 1/2 WCI   5
HULETT         LGT SNOW  23  21  93 NW10G17   29.64R VSB 1   WCI  12
NEWCASTLE      PTSUNNY   28  23  80 NW23G30   29.56R WCI  14

$$
WYZ014>020-022>026-101>103-051600-
CENTRAL WYOMING

CITY           SKY/WX    TMP DP  RH WIND       PRES   REMARKS
BIG PINEY      FAIR       8   1  73 NW18      29.77R WCI -11
PINEDALE       FAIR      10   1  67 MISG      29.74R
DUBOIS         FAIR      12  -4  48 W29       29.63S WCI  -9
LANDER         FAIR      23   1  38 W16       29.66R WCI  10
RIVERTON       MOCLDY    22  11  62 N12G25    29.68R WCI  10
CASPER         SNOW      24  22  91 NE7       29.61R VSB 1/2 WCI  16
DOUGLAS        HVY SNOW  26  24  92 N13G25    29.59R VSB 1/4 WCI  15

$$
WYZ021-027>030-104>119-051600-
SOUTHERN WYOMING

CITY           SKY/WX    TMP DP  RH WIND       PRES   REMARKS
EVANSTON       CLOUDY    17  -3  41 W17       29.85S WCI   1
FORT BRIDGER   CLOUDY    19   2  48 W18G29    29.86R WCI   3
ROCK SPRINGS   MOCLDY    18   9  68 W30G38    29.77R WCI  -1
DIXON          FLURRIES  25  18  72 W17G26    29.80R WCI  12
RAWLINS        CLOUDY    24  12  60 W32G41    29.63F WCI   6
SARATOGA       CLOUDY    27  19  74 W21G36    29.71R HAZE    WCI  13
LARAMIE        FAIR      28  23  81 SW24G31   29.57S WCI  14
CHEYENNE       FAIR      38  18  44 W17G26    29.56S WCI  28
TORRINGTON     FAIR      41  21  44 NW8       29.53R
PINE BLUFFS    FAIR      27  21  80 CALM      29.59R

$$




USA.gov is the U.S. government's official web portal to all federal, state and local government web resources and services.